User: anonymous   Login
Location: *
(2.5500°S, 65.9667°W)
Time: 02:22:08
(UTC+00:00)
Language:

SL-4 R/B - Orbit

View from above orbital plane
View from above orbital plane
View from above satellite
View from above satellite

Ground track
Ground track

The orbit data is extracted from the following two-line orbital elements,

1 39679U 14021B   22020.20469218  .00002026  00000-0  11255-3 0  9997
2 39679  51.6147 285.7493 0168563 163.0719 197.5971 15.07549091426747
Epoch (UTC): 20 January 2022 04:54:45
Eccentricity: 0.0168563
inclination: 51.6147°
perigee height: 427 km
apogee height: 660 km
right ascension of ascending node: 285.7493°
argument of perigee: 163.0719°
revolutions per day: 15.07549091
mean anomaly at epoch: 197.5971°
orbit number at epoch: 42674

The dashed part of the orbit path shows where the satellite is in the earth's shadow,  

DLR